TIME,DELAY(SENSOR),PRES,OXYGEN,RAWTEMP,T(OPTODE),TCPHASE,FLUOR,BETA(BETA700),BETA(BETA412),BETA(BETA440),CDOM,C(CSC),ED(ED412.20),ED(ED444.00),ED(ED489.60),ED(ED554.30),LU(LU412.10),LU(LU443.90),LU(LU489.70),LU(LU554.70),COMP,TILTX,TILTY,CHECK
1363925812,5809,881.1099853515625000,35.4111213684082000,562.3660278320312000,4.4125461578369140,56.2413902282714840,55,98,99,77,82,15507,0,0,0,0,2147124544,2147770313,2147573229,2147567680,1233,2,13,64191
1363929408,5810,946.0599975585938000,39.7041511535644500,568.8776855468750000,4.2104320526123050,55.6490898132324200,55,98,100,77,81,15503,0,0,0,0,2147123291,2147771693,2147573211,2147568438,3362,2,13,36608
1363933008,5809,954.9699707031250000,40.6355209350585940,569.4227294921875000,4.1934990882873535,55.5184211730957000,55,99,101,77,82,15504,0,0,0,0,2147123163,2147771062,2147573568,2147564562,533,2,13,54306
1363936608,5813,987.4400024414062000,42.4422798156738300,572.7661743164062000,4.0895648002624510,55.2831497192382800,55,99,99,78,82,15504,0,0,0,0,2147123181,2147774582,2147575542,2147567250,384,2,13,8203
1363940208,5809,987.0599975585938000,42.8691101074218750,572.7584228515625000,4.0898108482360840,55.2261505126953100,56,99,101,79,81,15493,0,0,0,0,2147123254,2147775259,2147575451,2147570139,63,2,13,45944
1363943808,5808,996.8099975585938000,42.2430915832519500,572.7368774414062000,4.0904788970947270,55.3126716613769500,55,98,99,78,81,15493,0,0,0,0,2147123035,2147772873,2147570989,2147570422,296,2,13,37696
1363947408,5811,992.6500244140625000,42.1158905029296900,572.0048217773438000,4.1132450103759770,55.3221817016601560,55,97,100,77,81,15491,0,0,0,0,2147122185,2147772306,2147574116,2147568320,302,2,13,4406
1363951008,5810,996.1599731445312000,42.2915611267089840,573.7183227539062000,4.0599560737609860,55.3149795532226560,54,97,99,78,82,15492,0,0,0,0,2147123117,2147770358,2147576045,2147569993,507,2,13,44092
1363954608,5811,985.5100097656250000,42.1572799682617200,574.0872192382812000,4.0484790802001950,55.3375015258789060,56,100,99,77,82,15493,0,0,0,0,2147121545,2147768923,2147574144,2147567488,3302,2,13,55752
1363958208,5809,991.2399902343750000,42.0954399108886700,573.7396240234375000,4.0592899322509770,55.3436698913574200,54,98,101,77,81,15490,0,0,0,0,2147124726,2147770532,2147572662,2147565558,407,2,13,46275
1363961808,5810,1002.5000000000000000,42.3466491699218750,573.5432739257812000,4.0653991699218750,55.3050193786621100,55,97,101,77,81,15491,0,0,0,0,2147122212,2147771638,2147574976,2147568146,3083,2,13,54392
1363965408,5810,1001.9099731445312000,41.5714302062988300,572.1234130859375000,4.1095561981201170,55.4043388366699200,54,99,102,78,81,15492,0,0,0,0,2147123986,2147766802,2147574390,2147568438,3529,2,13,55194
1363969008,5810,1000.3599853515625000,42.3182792663574200,572.7183837890625000,4.0910549163818360,55.2992782592773440,54,97,99,78,82,15492,0,0,0,0,2147120484,2147768640,2147575945,2147570404,3488,2,13,13671
1363972608,5809,996.4099731445312000,41.9277992248535160,573.6488037109375000,4.0621151924133300,55.3720703125000000,55,99,100,78,81,15488,0,0,0,0,2147125924,2147773385,2147575030,2147567177,3380,2,13,2558
1363976208,5809,990.7000122070312000,41.6683998107910160,574.9655151367188000,4.0211510658264160,55.4201011657714840,55,100,99,78,82,15493,0,0,0,0,2147119286,2147773586,2147573970,2147568621,151,3,13,31844
1363979808,5810,1002.8599853515625000,42.2252693176269500,574.1685180664062000,4.0459480285644530,55.3344306945800800,55,100,100,77,80,15490,0,0,0,0,2147122834,2147774061,2147578541,2147568667,3522,3,13,23284
1363983408,5807,1000.9199829101562000,42.1593589782714840,573.6220092773438000,4.0629501342773440,55.3369102478027340,55,98,101,77,82,15488,0,0,0,0,2147123904,2147768694,2147574912,2147570075,3431,2,13,59747
1363987008,5808,1000.0599975585938000,42.0532684326171900,573.4791870117188000,4.0673918724060060,55.3492584228515600,54,99,100,77,80,15489,0,0,0,0,2147123977,2147767131,2147575158,2147567186,184,2,13,20777
1363990608,5809,1003.9899902343750000,41.8321990966796900,573.6912231445312000,4.0607972145080570,55.3824806213378900,55,97,100,78,83,15488,0,0,0,0,2147123675,2147771154,2147574811,2147568539,3495,2,13,43016
1363994208,5808,1007.6300048828125000,42.2157592773437500,573.8773803710938000,4.0550041198730470,55.3312110900878900,56,96,100,77,82,15489,0,0,0,0,2147123702,2147768658,2147574875,2147569234,167,2,13,25247
1363997808,5809,1000.9899902343750000,42.0482482910156250,574.0979003906250000,4.0481448173522950,55.3558998107910160,55,100,99,77,82,15484,0,0,0,0,2147124214,2147773833,2147576246,2147569856,356,3,13,48714
1364001408,5810,998.0100097656250000,42.9528503417968750,574.7564697265625000,4.0276532173156740,55.2333106994628900,53,97,99,79,82,15489,0,0,0,0,2147123062,2147767149,2147574482,2147569216,134,2,13,61488
1364005008,5810,997.3599853515625000,42.4026908874511700,574.6494750976562000,4.0309829711914060,55.3095512390136700,55,98,100,78,82,15490,0,0,0,0,2147124425,2147773184,2147572937,2147568749,3495,2,13,25590
1364008608,5809,1001.2100219726562000,42.2053298950195300,574.0181884765625000,4.0506229400634770,55.3357810974121100,55,99,100,78,83,15488,0,0,0,0,2147125184,2147769298,2147579410,2147569042,825,2,13,52112
1364012208,5807,1005.1300048828125000,42.1585884094238300,573.9113769531250000,4.0539460182189940,55.3403015136718750,56,99,100,78,82,15485,0,0,0,0,2147124178,2147769042,2147576000,2147568100,790,2,13,61202
1364015808,5810,998.4899902343750000,42.6353111267089840,574.6502075195312000,4.0309619903564450,55.2786598205566400,55,101,100,78,82,15485,0,0,0,0,2147122971,2147764306,2147574573,2147568301,762,2,13,47693
1364019408,5809,999.4099731445312000,42.5241699218750000,574.6212158203125000,4.0318641662597660,55.2910194396972660,55,97,101,77,81,15486,0,0,0,0,2147123858,2147769810,2147575826,2147571053,51,2,13,57837
1364023008,5810,1005.4899902343750000,42.2937011718750000,574.2219848632812000,4.0442848205566410,55.3248786926269500,55,98,100,78,82,15487,0,0,0,0,2147124132,2147771172,2147572352,2147569865,1035,2,13,20287
1364026608,5811,1007.2600097656250000,42.2292213439941400,573.5341186523438000,4.0656847953796390,55.3224411010742200,54,98,99,76,82,15487,0,0,0,0,2147123922,2147771364,2147569846,2147569024,904,2,13,42374
1364030208,5806,1006.2000122070312000,41.6904106140136700,573.5776977539062000,4.0643267631530760,55.4062309265136700,56,97,100,77,81,15487,0,0,0,0,2147123346,2147770852,2147570797,2147573092,206,2,13,27590
1364033808,5808,1009.5900268554688000,41.0275001525878900,573.9166870117188000,4.0537819862365720,55.5061607360839840,55,98,100,79,82,15484,0,0,0,0,2147122715,2147771547,2147572150,2147570569,274,2,13,45321
1364037408,5810,1010.7399902343750000,41.7969284057617200,573.3964843750000000,4.0699629783630370,55.3884696960449200,54,97,100,77,83,15485,0,0,0,0,2147122230,2147771520,2147574400,2147569837,3482,2,13,27493
1364041008,5809,1006.0900268554688000,42.0203895568847660,573.2758178710938000,4.0737171173095700,55.3515205383300800,54,99,100,78,83,15483,0,0,0,0,2147125430,2147772251,2147572790,2147570450,3590,2,13,62337
1364044608,5811,1003.9799804687500000,41.6590309143066400,573.2155761718750000,4.0755920410156250,55.4009590148925800,54,98,100,79,82,15485,0,0,0,0,2147124004,2147772425,2147572480,2147567369,3113,2,13,5133
1364048208,5806,1007.6400146484375000,41.4066390991210940,573.7896728515625000,4.0577340126037600,55.4501304626464840,55,98,101,78,81,15482,0,0,0,0,2147123867,2147774070,2147572699,2147565769,140,2,13,8193
1364051808,5809,1007.8499755859375000,41.6098213195800800,573.9691162109375000,4.0521512031555180,55.4208908081054700,55,97,100,77,82,15482,0,0,0,0,2147125860,2147769892,2147576045,2147568612,492,2,13,24488
1364055408,5809,1003.9000244140625000,41.5160217285156250,574.0010986328125000,4.0511569976806640,55.4327087402343750,54,97,100,79,82,15481,0,0,0,0,2147125842,2147769938,2147572059,2147571373,3457,2,13,57879
1364059008,5810,1000.9400024414062000,40.8652305603027340,574.8710937500000000,4.0240879058837890,55.5381507873535160,55,97,101,78,83,15484,0,0,0,0,2147121188,2147768457,2147574317,2147567606,3180,3,13,62472
1364062608,5810,994.2800292968750000,41.6576194763183600,576.2017822265625000,3.9826719760894775,55.4392089843750000,54,97,100,79,83,15484,0,0,0,0,2147126400,2147768649,2147577645,2147570075,858,2,13,6077
1364066208,5811,996.8900146484375000,42.7688598632812500,576.2044067382812000,3.9825921058654785,55.2774200439453100,54,98,100,79,83,15481,0,0,0,0,2147124489,2147773385,2147573732,2147567917,3239,2,13,55900
1364069808,5810,1002.4899902343750000,43.4851684570312500,576.1961059570312000,3.9828510284423830,55.1736106872558600,54,100,99,77,82,15484,0,0,0,0,2147126226,2147768009,2147574272,2147568173,418,2,13,63400
1364070357,5809,998.9000244140625000,43.2889213562011700,576.1865844726562000,3.9831469058990480,55.2020187377929700,55,100,101,78,82,15481,0,0,0,0,2147124178,2147766528,2147575698,2147566189,208,2,13,43460
